Location: Weatherford
(35.5260°N, 98.7070°W)
Time: 03:55:42
(UTC-05:00)

Amateur Radio Satellites - All Passes

Search period start: 07 July 2015 03:25
Search period end: 08 July 2015 03:25
Location: Weatherford, 35.5260°N, 98.7070°W

Satellite Date Start Highest point End Downlink Frequencies (MHz)
Time Altitude Azimuth
ITAMSAT 1 07 Jul 03:28:42 03:33:26 35° 97° (E) 03:38:11 435.822/435.867
JAS-2 07 Jul 03:28:51 03:32:10 14° 89° (E) 03:36:10 435.910
STARS 07 Jul 03:35:56 03:39:53 34° 72° (ENE) 03:43:54 437.465
YUBILEINY 07 Jul 03:37:25 03:45:43 54° 91° (E) 03:54:07 435.215
Gurwin Techsat 1B 07 Jul 03:38:44 03:43:52 48° 99° (E) 03:49:00 435.225
AO-7 07 Jul 03:49:44 03:50:48 10° 86° (E) 03:52:45 29.400- 29.500
BEESAT 07 Jul 04:02:07 04:04:06 12° 270° (W) 04:05:47 436.000
AIST 1 07 Jul 04:19:54 04:23:30 25° 270° (W) 04:26:59
KKS-1 07 Jul 04:27:21 04:31:25 34° 263° (W) 04:35:27 437.445
RS-15 07 Jul 04:55:40 05:05:08 31° 320° (NW) 05:14:38 29.354- 29.394
MOZHAYETS 4 07 Jul 05:04:53 05:09:19 53° 74° (ENE) 05:13:49
Cosmos 2504 07 Jul 05:06:47 05:10:24 16° 84° (E) 05:14:25 435.465 / 435.565
Cosmos 2491 07 Jul 05:07:22 05:13:28 20° 277° (W) 05:19:06 435.465 / 435.565
ITAMSAT 1 07 Jul 05:08:33 05:12:46 25° 292° (WNW) 05:16:51 435.822/435.867
JAS-2 07 Jul 05:10:58 05:17:54 89° 284° (WNW) 05:25:33 435.910
STARS 07 Jul 05:13:27 05:16:28 17° 267° (W) 05:19:20 437.465
Gurwin Techsat 1B 07 Jul 05:19:46 05:23:31 19° 293° (WNW) 05:27:05 435.225
HORYU 2 07 Jul 05:22:28 05:26:58 75° 102° (ESE) 05:31:26 437.375
YUBILEINY 07 Jul 05:35:36 05:43:00 29° 290° (WNW) 05:50:10 435.215
AO-7 07 Jul 05:36:47 05:45:10 73° 105° (ESE) 05:53:30 29.400- 29.500
CUBESAT XI-V 07 Jul 05:43:43 05:44:22 10° 65° (ENE) 05:45:18 437.345
VERMONT LUNAR 07 Jul 05:49:57 05:52:05 17° 146° (SE) 05:54:16 437.305
BEESAT 2 07 Jul 06:13:18 06:14:24 11° 109° (ESE) 06:15:44 435.950
MOZHAYETS 4 07 Jul 06:44:56 06:46:56 12° 270° (W) 06:48:41
Cosmos 2504 07 Jul 06:55:00 07:01:56 69° 278° (W) 07:08:50 435.465 / 435.565
JAS-2 07 Jul 06:58:29 07:02:23 15° 296° (WNW) 07:06:03 435.910
O/OREOS (USA 219) 07 Jul 07:00:26 07:04:09 27° 103° (ESE) 07:07:58 437.305
Cubesat XI-IV 07 Jul 07:00:50 07:04:59 23° 94° (E) 07:09:15 437.490
ISS 07 Jul 07:15:44 07:18:52 48° 135° (SE) 07:22:01 145.825
CUBESAT XI-V 07 Jul 07:16:34 07:21:15 73° 259° (W) 07:26:00 437.345
RS-15 07 Jul 07:18:11 07:22:59 13° 354° (N) 07:27:44 29.354- 29.394
VERMONT LUNAR 07 Jul 07:25:38 07:28:44 78° 339° (NNW) 07:31:51 437.305
AO-7 07 Jul 07:30:57 07:37:18 24° 301° (WNW) 07:43:18 29.400- 29.500
BEESAT 3 07 Jul 07:31:28 07:35:29 62° 301° (WNW) 07:39:33 437.485
STRAND 1 07 Jul 07:45:53 07:51:00 76° 76° (ENE) 07:56:11 437.568
BEESAT 2 07 Jul 07:48:02 07:52:02 52° 302° (WNW) 07:56:06 435.950
PRISM 07 Jul 07:48:46 07:52:55 78° 77° (ENE) 07:57:08 437.425
AIST 2 07 Jul 07:48:53 07:52:40 33° 113° (ESE) 07:56:32 435.215
DANDE 07 Jul 07:56:05 08:02:20 34° 96° (E) 08:07:27 436.750
CUTE-I 07 Jul 08:04:45 08:10:08 83° 285° (WNW) 08:15:29 437.470
CUSAT 1 07 Jul 08:13:24 08:19:51 64° 98° (E) 08:24:43 437.405
GONETS M04 07 Jul 08:17:13 08:22:43 20° 83° (E) 08:28:41
BRITE-PL 07 Jul 08:24:10 08:25:52 12° 90° (E) 08:27:47 437.365/2234.400
PHONESAT 2.4 07 Jul 08:26:32 08:29:54 58° 154° (SSE) 08:33:17 2401.200-2431.200
HO-68 07 Jul 08:36:18 08:37:29 11° 87° (E) 08:39:20 435.675
O/OREOS (USA 219) 07 Jul 08:39:57 08:43:34 23° 299° (WNW) 08:47:06 437.305
Cubesat XI-IV 07 Jul 08:40:16 08:45:13 38° 289° (WNW) 08:50:05 437.490
M-CUBED/EXP-1 PRIME 07 Jul 08:46:18 08:49:01 24° 67° (ENE) 08:51:53 437.505
ISS 07 Jul 08:53:10 08:55:27 17° 331° (NNW) 08:57:43 145.825
VERMONT LUNAR 07 Jul 09:03:02 09:05:53 31° 356° (N) 09:08:44 437.305
CUTE 1.7 + AOD 2 07 Jul 09:03:25 09:04:23 11° 89° (E) 09:05:39 437.475
CANX-2 07 Jul 09:06:14 09:08:21 14° 91° (E) 09:10:41 2200.000
GOMX 1 07 Jul 09:20:10 09:23:57 34° 97° (E) 09:27:46 467.674
AIST 2 07 Jul 09:28:00 09:31:19 21° 310° (NW) 09:34:35 435.215
STRAND 1 07 Jul 09:30:06 09:30:53 10° 272° (W) 09:31:15 437.568
RS-15 07 Jul 09:33:39 09:41:49 22° 30° (NNE) 09:50:39 29.354- 29.394
DANDE 07 Jul 09:39:11 09:45:28 32° 282° (WNW) 09:50:22 436.750
AUBIESAT-1 07 Jul 09:43:00 09:46:16 56° 256° (WSW) 09:49:39 437.475
SEEDS 07 Jul 09:44:24 09:48:04 28° 96° (E) 09:51:47 437.485
AAUSAT CUBESAT 2 07 Jul 09:48:03 09:51:08 20° 94° (E) 09:54:20 437.432
DOVE 4 07 Jul 09:48:55 09:52:54 44° 99° (E) 09:56:57 437.250
CUSAT 1 07 Jul 09:59:26 10:02:27 14° 286° (WNW) 10:04:50 437.405
BRITE-PL 07 Jul 10:00:47 10:04:45 39° 286° (WNW) 10:08:36 437.365/2234.400
PHONESAT 2.4 07 Jul 10:04:44 10:08:00 41° 349° (N) 10:11:17 2401.200-2431.200
GONETS M04 07 Jul 10:09:58 10:18:47 75° 279° (W) 10:27:32
Cosmos 2499 07 Jul 10:11:16 10:15:35 18° 84° (E) 10:20:19 435.465 / 435.565
CINEMA 3 07 Jul 10:11:40 10:15:32 35° 98° (E) 10:19:31 145.822/145.860
ANTELSAT 07 Jul 10:14:14 10:15:44 12° 67° (ENE) 10:17:28 437.575/2403.000
COMPASS 1 07 Jul 10:16:06 10:20:15 53° 99° (E) 10:24:23 437.405
HO-68 07 Jul 10:19:12 10:26:24 81° 104° (ESE) 10:33:35 435.675
M-CUBED/EXP-1 PRIME 07 Jul 10:22:12 10:23:59 13° 263° (W) 10:25:39 437.505
TIGRISAT 07 Jul 10:24:13 10:26:36 15° 69° (ENE) 10:29:08 435.000
ZACube-1 07 Jul 10:28:37 10:30:57 15° 92° (E) 10:33:31 437.345
Oscar 11 07 Jul 10:29:24 10:33:04 27° 95° (E) 10:36:49 145.826/435.025
CUTE 1.7 + AOD 2 07 Jul 10:36:29 10:40:40 52° 285° (WNW) 10:44:50 437.475
CUBEBUG 2 07 Jul 10:38:56 10:42:47 33° 97° (E) 10:46:46 437.445
VERMONT LUNAR 07 Jul 10:40:10 10:43:09 41° 13° (NNE) 10:46:08 437.305
CANX-2 07 Jul 10:40:27 10:44:31 41° 286° (WNW) 10:48:34 2200.000
GOMX 1 07 Jul 10:59:20 11:01:53 16° 291° (WNW) 11:04:16 467.674
FUNcube-1 07 Jul 11:02:02 11:05:57 36° 98° (E) 11:09:59 145.935
UNISAT 6 07 Jul 11:03:28 11:07:33 45° 74° (ENE) 11:11:37 437.425
QB50P1 07 Jul 11:11:59 11:15:13 22° 71° (ENE) 11:18:32 145.935-145.965
DELFI C3 07 Jul 11:16:08 11:20:12 69° 101° (E) 11:24:15 145.870
SEEDS 07 Jul 11:20:28 11:23:43 21° 289° (WNW) 11:26:50 437.485
UWE-3 07 Jul 11:22:58 11:27:15 90° 26° (NNE) 11:31:38 435.000/436.395/437.385
AAUSAT CUBESAT 2 07 Jul 11:23:08 11:26:45 27° 288° (WNW) 11:30:18 437.432
NANOSAT C BR1 07 Jul 11:24:25 11:28:05 30° 72° (ENE) 11:31:49 145.865
DOVE 4 07 Jul 11:28:33 11:30:22 12° 292° (WNW) 11:31:58 437.250
DUCHIFAT 1 07 Jul 11:30:04 11:33:51 34° 73° (ENE) 11:37:42 145.980
BUGSAT 1 07 Jul 11:33:08 11:36:30 24° 71° (ENE) 11:39:55 437.445
POLYITAN 1 07 Jul 11:39:04 11:43:07 46° 74° (ENE) 11:47:12 437.675
PHONESAT 2.4 07 Jul 11:43:12 11:46:25 36° 6° (N) 11:49:39 2401.200-2431.200
RS-15 07 Jul 11:45:21 11:57:05 69° 57° (ENE) 12:09:16 29.354- 29.394
DX 1 07 Jul 11:46:49 11:50:52 38° 98° (E) 11:54:55 434.975-435.025
ESTCUBE 1 07 Jul 11:46:49 11:48:52 13° 91° (E) 11:51:09 437.505/2401.250
ANTELSAT 07 Jul 11:47:59 11:52:09 50° 260° (W) 11:56:18 437.575/2403.000
CINEMA 3 07 Jul 11:49:50 11:52:31 16° 290° (WNW) 11:55:06 145.822/145.860
VELOX 1 07 Jul 11:50:12 11:53:35 22° 94° (E) 11:57:04 145.980
COMPASS 1 07 Jul 11:54:02 11:55:30 11° 293° (WNW) 11:56:44 437.405
HUMSAT D 07 Jul 11:55:36 11:59:47 67° 101° (E) 12:03:59 437.325/437.525
TIGRISAT 07 Jul 11:59:04 12:03:05 38° 262° (W) 12:07:03 435.000
Cosmos 2499 07 Jul 12:01:10 12:08:08 61° 280° (W) 12:15:12 435.465 / 435.565
UKube-1 07 Jul 12:02:37 12:06:52 54° 100° (E) 12:11:05 .
ZACube-1 07 Jul 12:03:31 12:07:30 39° 286° (WNW) 12:11:31 437.345
Oscar 11 07 Jul 12:05:43 12:09:08 22° 289° (WNW) 12:12:28 145.826/435.025
POPSAT HIP 1 07 Jul 12:07:53 12:12:08 78° 257° (WSW) 12:16:22 437.405
QB50P2 07 Jul 12:08:02 12:12:17 75° 257° (WSW) 12:16:31 145.880/145.840
HO-68 07 Jul 12:08:49 12:13:26 18° 300° (WNW) 12:17:42 435.675
GONETS M04 07 Jul 12:13:55 12:17:29 12° 300° (WNW) 12:20:17
CUBEBUG 2 07 Jul 12:16:23 12:19:17 18° 290° (WNW) 12:22:06 437.445
VERMONT LUNAR 07 Jul 12:17:03 12:20:05 47° 208° (SSW) 12:23:07 437.305
50 SAT 07 Jul 12:36:17 12:40:13 78° 283° (WNW) 12:44:09 437.505
AISAT 07 Jul 12:37:36 12:42:02 86° 103° (ESE) 12:46:25 437.250
FUNcube-1 07 Jul 12:39:16 12:42:03 17° 290° (WNW) 12:44:42 145.935
UNISAT 6 07 Jul 12:42:44 12:44:38 12° 269° (W) 12:46:17 437.425
CUBEBUG 1 07 Jul 12:45:11 12:49:27 53° 100° (E) 12:53:40 437.445
QB50P1 07 Jul 12:47:23 12:50:58 26° 264° (W) 12:54:29 145.935-145.965
Oscar 19 07 Jul 12:49:55 12:50:47 11° 64° (ENE) 12:52:00 437.125/150
NANOSAT C BR1 07 Jul 13:00:56 13:03:59 19° 267° (W) 13:06:54 145.865
DUCHIFAT 1 07 Jul 13:07:03 13:09:48 16° 267° (W) 13:12:23 145.980
BUGSAT 1 07 Jul 13:08:28 13:11:54 23° 265° (W) 13:15:14 437.445
POLYITAN 1 07 Jul 13:17:36 13:19:20 12° 269° (W) 13:20:49 437.675
PHONESAT 2.4 07 Jul 13:21:11 13:24:38 87° 206° (SSW) 13:28:06 2401.200-2431.200
ESTCUBE 1 07 Jul 13:21:42 13:26:04 48° 286° (WNW) 13:30:24 437.505/2401.250
DX 1 07 Jul 13:24:05 13:26:50 16° 292° (WNW) 13:29:24 434.975-435.025
VELOX 1 07 Jul 13:26:23 13:30:08 27° 289° (WNW) 13:33:49 145.980
SPROUT 07 Jul 13:34:30 13:38:40 53° 99° (E) 13:42:52 437.525
UKube-1 07 Jul 13:40:56 13:42:34 12° 294° (WNW) 13:43:58 .
ISS 07 Jul 13:46:04 13:48:25 18° 30° (NNE) 13:50:47 145.825
YUBILEINY 07 Jul 13:52:12 13:58:27 22° 67° (ENE) 14:05:09 435.215
RS-15 07 Jul 13:58:54 14:08:57 31° 254° (WSW) 14:18:45 29.354- 29.394
TISAT 1 07 Jul 14:02:55 14:07:06 75° 101° (E) 14:11:16 437.305
Cosmos 2491 07 Jul 14:14:15 14:18:20 15° 81° (E) 14:23:06 435.465 / 435.565
CUBEBUG 1 07 Jul 14:23:36 14:25:23 12° 293° (WNW) 14:26:56 437.445
Oscar 19 07 Jul 14:24:24 14:29:33 82° 257° (WSW) 14:34:42 437.125/150
BEESAT 07 Jul 14:25:22 14:28:41 19° 93° (E) 14:32:09 436.000
SWISSCUBE 07 Jul 14:40:49 14:45:01 31° 96° (E) 14:49:17 437.505
ITAMSAT 1 07 Jul 14:43:40 14:48:29 40° 71° (ENE) 14:53:22 435.822/435.867
AO-7 07 Jul 14:44:48 14:48:43 15° 54° (NE) 14:53:09 29.400- 29.500
ITUPSAT 1 07 Jul 14:47:43 14:52:02 33° 97° (E) 14:56:21 437.325
Gurwin Techsat 1B 07 Jul 14:56:47 15:01:56 57° 74° (ENE) 15:07:10 435.225
PHONESAT 2.4 07 Jul 15:00:06 15:02:21 16° 216° (SW) 15:04:32 2401.200-2431.200
AIST 1 07 Jul 15:09:50 15:12:14 15° 88° (E) 15:14:51
JUGNU 07 Jul 15:12:27 15:14:19 12° 167° (SSE) 15:16:17 437.505
SPROUT 07 Jul 15:12:48 15:14:21 11° 293° (WNW) 15:15:40 437.525
ISS 07 Jul 15:21:52 15:24:57 43° 226° (SW) 15:28:02 145.825
JAS-2 07 Jul 15:22:29 15:26:30 24° 67° (ENE) 15:30:49 435.910
PCSat 07 Jul 15:28:01 15:33:15 54° 113° (ESE) 15:38:33 145.827
SO-50 07 Jul 15:37:22 15:40:06 16° 109° (ESE) 15:43:06 436.795
YUBILEINY 07 Jul 15:47:29 15:56:12 70° 267° (W) 16:04:53 435.215
BEESAT 3 07 Jul 15:53:02 15:56:35 29° 54° (NE) 16:00:07 437.485
BEESAT 07 Jul 16:02:15 16:06:41 38° 288° (WNW) 16:11:04 436.000
Cosmos 2491 07 Jul 16:05:20 16:14:10 90° 115° (ESE) 16:23:02 435.465 / 435.565
BEESAT 2 07 Jul 16:10:01 16:13:45 34° 55° (NE) 16:17:27 435.950
AIST 2 07 Jul 16:15:16 16:16:20 11° 44° (NE) 16:17:34 435.215
HORYU 2 07 Jul 16:17:46 16:21:58 46° 74° (ENE) 16:26:14 437.375
SWISSCUBE 07 Jul 16:18:53 16:22:45 24° 291° (WNW) 16:26:29 437.505
KKS-1 07 Jul 16:20:56 16:25:17 56° 100° (E) 16:29:37 437.445
ITAMSAT 1 07 Jul 16:24:10 16:28:10 21° 267° (W) 16:32:00 435.822/435.867
ITUPSAT 1 07 Jul 16:25:57 16:29:45 23° 291° (WNW) 16:33:25 437.325
AO-7 07 Jul 16:32:02 16:40:20 75° 71° (ENE) 16:48:42 29.400- 29.500
Gurwin Techsat 1B 07 Jul 16:39:14 16:42:22 15° 270° (W) 16:45:13 435.225
Cosmos 2504 07 Jul 16:43:51 16:50:23 31° 74° (ENE) 16:57:28 435.465 / 435.565
AIST 1 07 Jul 16:45:30 16:49:36 37° 282° (WNW) 16:53:41
JUGNU 07 Jul 16:58:54 17:02:36 17° 177° (S) 17:06:21 437.505
MOZHAYETS 4 07 Jul 17:04:14 17:07:01 16° 91° (E) 17:10:00
STARS 07 Jul 17:04:20 17:08:43 76° 285° (WNW) 17:13:05 437.465
JAS-2 07 Jul 17:06:51 17:11:31 33° 264° (W) 17:16:20 435.910
O/OREOS (USA 219) 07 Jul 17:12:47 17:16:52 33° 64° (ENE) 17:21:00 437.305
PCSat 07 Jul 17:13:04 17:17:04 20° 310° (NW) 17:20:56 145.827
SO-50 07 Jul 17:15:40 17:20:14 50° 304° (WNW) 17:24:59 436.795
BEESAT 3 07 Jul 17:31:22 17:34:22 20° 249° (WSW) 17:37:15 437.485
CUTE-I 07 Jul 17:46:50 17:49:21 14° 64° (ENE) 17:52:11 437.470
BEESAT 2 07 Jul 17:48:52 17:51:33 17° 249° (WSW) 17:54:04 435.950
AIST 2 07 Jul 17:51:17 17:55:29 75° 243° (WSW) 17:59:34 435.215
HORYU 2 07 Jul 17:56:44 17:58:55 13° 269° (W) 18:00:52 437.375
SRMSAT 07 Jul 17:58:00 18:01:18 15° 172° (S) 18:04:38 437.500
KKS-1 07 Jul 17:59:43 18:01:30 12° 294° (WNW) 18:03:00 437.445
Cosmos 2491 07 Jul 18:07:05 18:12:28 16° 297° (WNW) 18:17:17 435.465 / 435.565
Cubesat XI-IV 07 Jul 18:19:51 18:24:23 29° 69° (ENE) 18:29:02 437.490
AO-7 07 Jul 18:28:00 18:33:59 20° 268° (W) 18:39:32 29.400- 29.500
Cosmos 2504 07 Jul 18:35:28 18:42:46 47° 269° (W) 18:50:29 435.465 / 435.565
MOZHAYETS 4 07 Jul 18:40:04 18:44:28 42° 287° (WNW) 18:48:49
JUGNU 07 Jul 18:47:26 18:50:55 16° 187° (S) 18:54:22 437.505
O/OREOS (USA 219) 07 Jul 18:52:47 18:56:06 19° 258° (WSW) 18:59:17 437.305
CUSAT 1 07 Jul 18:55:26 18:56:57 14° 76° (ENE) 18:58:37 437.405
CUBESAT XI-V 07 Jul 19:16:37 19:20:53 35° 97° (E) 19:25:07 437.345
CUTE-I 07 Jul 19:23:34 19:28:55 69° 258° (WSW) 19:34:18 437.470
BRITE-PL 07 Jul 19:31:22 19:34:26 16° 69° (ENE) 19:37:36 437.365/2234.400
PRISM 07 Jul 19:35:45 19:37:45 13° 92° (E) 19:39:56 437.425
SRMSAT 07 Jul 19:46:00 19:49:45 17° 182° (S) 19:53:29 437.500
Cubesat XI-IV 07 Jul 19:59:42 20:04:26 31° 264° (W) 20:09:07 437.490
STRAND 1 07 Jul 19:59:54 20:04:28 32° 96° (E) 20:09:03 437.568
GONETS M04 07 Jul 20:24:13 20:32:29 48° 77° (ENE) 20:40:50
DANDE 07 Jul 20:24:17 20:26:28 23° 265° (W) 20:28:39 436.750
GOMX 1 07 Jul 20:24:59 20:29:24 32° 73° (ENE) 20:33:39 467.674
SEEDS 07 Jul 20:34:59 20:37:05 14° 69° (ENE) 20:39:23 437.485
HO-68 07 Jul 20:44:29 20:51:06 44° 68° (ENE) 20:57:50 435.675
DOVE 4 07 Jul 20:51:26 20:55:46 35° 74° (ENE) 20:59:57 437.250
CUBESAT XI-V 07 Jul 20:54:39 20:58:06 20° 291° (WNW) 21:01:23 437.345
COMPASS 1 07 Jul 21:04:50 21:08:10 24° 71° (ENE) 21:11:36 437.405
BRITE-PL 07 Jul 21:07:15 21:12:37 57° 260° (W) 21:17:40 437.365/2234.400
PRISM 07 Jul 21:09:28 21:13:25 40° 287° (WNW) 21:17:18 437.425
CINEMA 3 07 Jul 21:11:04 21:14:35 24° 72° (ENE) 21:18:05 145.822/145.860
Oscar 11 07 Jul 21:22:31 21:24:54 15° 69° (ENE) 21:27:28 145.826/435.025
CUTE 1.7 + AOD 2 07 Jul 21:25:59 21:30:10 73° 77° (ENE) 21:34:24 437.475
AUBIESAT-1 07 Jul 21:26:38 21:28:48 14° 97° (E) 21:31:17 437.475
CANX-2 07 Jul 21:29:55 21:34:07 88° 260° (W) 21:38:22 2200.000
CUBEBUG 2 07 Jul 21:35:13 21:38:15 20° 71° (ENE) 21:41:22 437.445
SRMSAT 07 Jul 21:35:51 21:38:11 12° 192° (SSW) 21:40:27 437.500
STRAND 1 07 Jul 21:39:18 21:43:33 26° 291° (WNW) 21:47:40 437.568
Cosmos 2499 07 Jul 21:54:18 22:01:41 39° 76° (ENE) 22:09:38 435.465 / 435.565
FUNcube-1 07 Jul 21:55:50 21:58:47 20° 71° (ENE) 22:01:50 145.935
DELFI C3 07 Jul 22:00:45 22:04:06 26° 72° (ENE) 22:07:32 145.870
M-CUBED/EXP-1 PRIME 07 Jul 22:02:48 22:07:00 42° 103° (ESE) 22:11:26 437.505
GOMX 1 07 Jul 22:03:21 22:07:32 24° 265° (W) 22:11:25 467.674
SEEDS 07 Jul 22:08:37 22:12:34 41° 262° (W) 22:16:32 437.485
AAUSAT CUBESAT 2 07 Jul 22:10:07 22:14:11 60° 260° (W) 22:18:18 437.432
UWE-3 07 Jul 22:17:18 22:21:22 48° 75° (ENE) 22:25:24 435.000/436.395/437.385
GONETS M04 07 Jul 22:21:36 22:29:04 32° 273° (W) 22:36:18
DOVE 4 07 Jul 22:30:04 22:33:37 19° 266° (W) 22:36:53 437.250
HO-68 07 Jul 22:32:46 22:39:00 31° 264° (W) 22:45:05 435.675
DX 1 07 Jul 22:39:55 22:43:23 24° 70° (ENE) 22:46:56 434.975-435.025
COMPASS 1 07 Jul 22:40:31 22:43:48 22° 266° (W) 22:47:01 437.405
HUMSAT D 07 Jul 22:44:47 22:48:20 30° 73° (ENE) 22:51:57 437.325/437.525
VELOX 1 07 Jul 22:45:55 22:48:22 15° 68° (ENE) 22:51:00 145.980
CINEMA 3 07 Jul 22:48:00 22:51:44 25° 264° (W) 22:55:16 145.822/145.860
UKube-1 07 Jul 22:54:39 22:58:28 31° 72° (ENE) 23:02:21 .
ZACube-1 07 Jul 22:56:12 23:00:24 73° 259° (WSW) 23:04:33 437.345
Oscar 11 07 Jul 22:56:44 23:00:46 40° 262° (W) 23:04:50 145.826/435.025
AUBIESAT-1 07 Jul 22:59:27 23:03:44 51° 290° (WNW) 23:08:13 437.475
UNISAT 6 07 Jul 22:59:57 23:01:40 12° 91° (E) 23:03:40 437.425
CUBEBUG 2 07 Jul 23:11:05 23:14:49 28° 264° (W) 23:18:25 437.445
50 SAT 07 Jul 23:17:32 23:21:00 34° 74° (ENE) 23:24:31 437.505
FUNcube-1 07 Jul 23:31:20 23:34:58 28° 264° (W) 23:38:32 145.935
AISAT 07 Jul 23:32:12 23:36:31 52° 74° (ENE) 23:40:53 437.250
DELFI C3 07 Jul 23:36:18 23:39:13 19° 267° (W) 23:42:01 145.870
CUBEBUG 1 07 Jul 23:38:29 23:42:21 31° 72° (ENE) 23:46:16 437.445
M-CUBED/EXP-1 PRIME 07 Jul 23:38:31 23:41:33 18° 295° (WNW) 23:44:33 437.505
ANTELSAT 07 Jul 23:42:31 23:46:41 39° 98° (E) 23:50:58 437.575/2403.000
Cosmos 2499 07 Jul 23:47:26 23:54:49 39° 270° (W) 00:02:29 435.465 / 435.565
TIGRISAT 07 Jul 23:53:02 23:57:20 50° 99° (E) 00:01:45 435.000
POPSAT HIP 1 07 Jul 23:56:49 23:59:55 20° 94° (E) 00:03:08 437.405
UWE-3 07 Jul 23:56:53 23:58:14 11° 270° (W) 23:59:17 435.000/436.395/437.385
QB50P2 07 Jul 23:57:02 00:00:14 21° 94° (E) 00:03:33 145.880/145.840
DX 1 08 Jul 00:15:51 00:19:33 26° 264° (W) 00:23:10 434.975-435.025
ESTCUBE 1 08 Jul 00:17:51 00:22:23 77° 258° (WSW) 00:26:57 437.505/2401.250
PCSat 08 Jul 00:19:24 00:23:43 24° 52° (NE) 00:28:07 145.827
VELOX 1 08 Jul 00:20:18 00:24:35 44° 261° (W) 00:28:51 145.980
HUMSAT D 08 Jul 00:21:23 00:24:10 17° 267° (W) 00:26:48 437.325/437.525
SPROUT 08 Jul 00:25:59 00:29:38 28° 72° (ENE) 00:33:22 437.525
UKube-1 08 Jul 00:31:32 00:34:41 19° 266° (W) 00:37:42 .
UNISAT 6 08 Jul 00:34:27 00:38:46 51° 286° (WNW) 00:43:09 437.425
QB50P1 08 Jul 00:34:36 00:38:46 61° 101° (E) 00:42:55 145.935-145.965
NANOSAT C BR1 08 Jul 00:47:14 00:51:27 87° 102° (ESE) 00:55:39 145.865
TISAT 1 08 Jul 00:52:06 00:55:58 36° 73° (ENE) 00:59:52 437.305
BUGSAT 1 08 Jul 00:52:45 00:56:45 61° 101° (E) 01:00:42 437.445
DUCHIFAT 1 08 Jul 00:52:49 00:57:01 82° 283° (WNW) 01:01:12 145.980
50 SAT 08 Jul 00:53:56 00:55:48 13° 268° (W) 00:57:28 437.505
POLYITAN 1 08 Jul 01:02:57 01:07:06 58° 285° (WNW) 01:11:15 437.675
AISAT 08 Jul 01:11:37 01:13:28 12° 270° (W) 01:15:03 437.250
CUBEBUG 1 08 Jul 01:15:24 01:18:45 20° 266° (W) 01:21:59 437.445
ANTELSAT 08 Jul 01:20:18 01:23:13 17° 291° (WNW) 01:26:00 437.575/2403.000
BEESAT 08 Jul 01:29:40 01:32:32 17° 67° (ENE) 01:35:37 436.000
TIGRISAT 08 Jul 01:31:31 01:33:45 13° 292° (WNW) 01:35:46 435.000
POPSAT HIP 1 08 Jul 01:32:13 01:35:48 27° 288° (WNW) 01:39:18 437.405
QB50P2 08 Jul 01:32:34 01:36:07 26° 289° (WNW) 01:39:34 145.880/145.840
SWISSCUBE 08 Jul 01:44:44 01:48:38 26° 70° (ENE) 01:52:38 437.505
SO-50 08 Jul 01:49:52 01:54:48 66° 58° (ENE) 01:59:36 436.795
ITUPSAT 1 08 Jul 01:51:52 01:55:51 28° 70° (ENE) 01:59:57 437.325
PCSat 08 Jul 02:02:13 02:07:20 43° 249° (WSW) 02:12:23 145.827
SPROUT 08 Jul 02:02:27 02:05:45 21° 266° (W) 02:08:55 437.525
RS-15 08 Jul 02:05:05 02:15:33 59° 113° (ESE) 02:26:24 29.354- 29.394
Cosmos 2491 08 Jul 02:20:00 02:27:57 39° 74° (ENE) 02:35:58 435.465 / 435.565
TISAT 1 08 Jul 02:29:17 02:31:54 15° 268° (W) 02:34:20 437.305
Oscar 19 08 Jul 02:39:08 02:44:01 44° 99° (E) 02:48:56 437.125/150
YUBILEINY 08 Jul 02:49:45 02:56:33 28° 85° (E) 03:03:40 435.215
AIST 1 08 Jul 02:55:39 02:59:40 37° 78° (ENE) 03:03:40
ITAMSAT 1 08 Jul 03:00:31 03:03:55 18° 92° (E) 03:07:30 435.822/435.867
BEESAT 08 Jul 03:05:27 03:10:02 46° 261° (W) 03:14:38 436.000
KKS-1 08 Jul 03:16:15 03:20:16 35° 72° (ENE) 03:24:20 437.445
Gurwin Techsat 1B 08 Jul 03:16:28 03:21:00 29° 95° (E) 03:25:36 435.225
